Time,TemperatureF,DewpointF,PressureIn,WindDirection,WindDirectionDegrees,WindSpeedMPH,WindSpeedGustMPH,Humidity,HourlyPrecipIn,Conditions,Clouds,dailyrainin,SoftwareType,DateUTC
2013-02-12 00:04:00,39.2,39.2,30.07,ESE,102,3.5,-999.9,100,-99.99,,,-99.99,,2013-02-12 05:04:00,
2013-02-12 00:08:00,39.2,39.2,30.07,ESE,102,3.5,-999.9,100,-99.99,,,-99.99,,2013-02-12 05:08:00,
2013-02-12 00:14:00,39.2,39.2,30.09,North,0,0.0,-999.9,100,-99.99,,,-99.99,,2013-02-12 05:14:00,
2013-02-12 00:20:00,39.2,39.2,30.09,North,0,0.0,-999.9,100,-99.99,,,-99.99,,2013-02-12 05:20:00,
2013-02-12 00:24:00,37.4,37.4,30.09,North,0,0.0,-999.9,100,-99.99,,,-99.99,,2013-02-12 05:24:00,
2013-02-12 00:30:00,37.4,37.4,30.09,North,0,0.0,-999.9,100,-99.99,,,-99.99,,2013-02-12 05:30:00,
2013-02-12 00:38:00,37.4,37.4,30.09,North,0,0.0,-999.9,100,-99.99,,,-99.99,,2013-02-12 05:38:00,
2013-02-12 00:44:00,37.4,37.4,30.09,North,0,0.0,-999.9,100,-99.99,,,-99.99,,2013-02-12 05:44:00,
2013-02-12 00:50:00,35.6,35.6,30.09,North,0,0.0,-999.9,100,-99.99,,,-99.99,,2013-02-12 05:50:00,
2013-02-12 00:58:00,35.6,35.6,30.09,North,0,0.0,-999.9,100,-99.99,,,-99.99,,2013-02-12 05:58:00,
2013-02-12 01:04:00,35.6,35.6,30.10,North,0,0.0,-999.9,100,-99.99,,,-99.99,,2013-02-12 06:04:00,
2013-02-12 02:04:00,37.4,32.0,30.10,ESE,113,5.8,-999.9,81,-99.99,,,-99.99,,2013-02-12 07:04:00,
2013-02-12 02:10:00,39.2,30.2,30.11,West,262,0.0,-999.9,70,-99.99,,,-99.99,,2013-02-12 07:10:00,
2013-02-12 02:17:00,39.2,30.2,30.11,West,262,0.0,-999.9,70,-99.99,,,-99.99,,2013-02-12 07:17:00,
2013-02-12 02:24:00,39.2,30.2,30.11,West,268,2.3,-999.9,70,-99.99,,,-99.99,,2013-02-12 07:24:00,
2013-02-12 02:30:00,39.2,28.4,30.12,SE,137,1.2,-999.9,65,-99.99,,,-99.99,,2013-02-12 07:30:00,
2013-02-12 02:38:00,39.2,28.4,30.12,SE,137,1.2,-999.9,65,-99.99,,,-99.99,,2013-02-12 07:38:00,
2013-02-12 02:44:00,39.2,30.2,30.12,SE,138,0.0,-999.9,70,-99.99,,,-99.99,,2013-02-12 07:44:00,
2013-02-12 02:50:00,39.2,28.4,30.12,WSW,241,1.2,-999.9,65,-99.99,,,-99.99,,2013-02-12 07:50:00,
2013-02-12 02:58:00,39.2,28.4,30.12,WSW,241,1.2,-999.9,65,-99.99,,,-99.99,,2013-02-12 07:58:00,
2013-02-12 03:04:00,39.2,28.4,30.13,North,0,0.0,-999.9,65,-99.99,,,-99.99,,2013-02-12 08:04:00,
2013-02-12 03:10:00,39.2,28.4,30.13,ESE,121,3.5,-999.9,65,-99.99,,,-99.99,,2013-02-12 08:10:00,
2013-02-12 03:18:00,39.2,28.4,30.13,ESE,121,3.5,-999.9,65,-99.99,,,-99.99,,2013-02-12 08:18:00,
2013-02-12 03:25:00,39.2,26.6,30.13,NNE,14,1.2,-999.9,61,-99.99,,,-99.99,,2013-02-12 08:25:00,
2013-02-12 03:31:00,39.2,28.4,30.13,North,0,0.0,-999.9,65,-99.99,,,-99.99,,2013-02-12 08:31:00,
2013-02-12 03:38:00,39.2,28.4,30.13,North,0,0.0,-999.9,65,-99.99,,,-99.99,,2013-02-12 08:38:00,
2013-02-12 03:44:00,39.2,28.4,30.13,West,281,0.0,-999.9,65,-99.99,,,-99.99,,2013-02-12 08:44:00,
2013-02-12 03:51:00,39.2,28.4,30.13,ESE,116,3.5,-999.9,65,-99.99,,,-99.99,,2013-02-12 08:51:00,
2013-02-12 03:58:00,39.2,28.4,30.13,ESE,116,3.5,-999.9,65,-99.99,,,-99.99,,2013-02-12 08:58:00,
2013-02-12 04:05:00,39.2,26.6,30.14,North,0,0.0,-999.9,61,-99.99,,,-99.99,,2013-02-12 09:05:00,
2013-02-12 04:10:00,39.2,28.4,30.14,ENE,60,0.0,-999.9,65,-99.99,,,-99.99,,2013-02-12 09:10:00,
2013-02-12 04:18:00,39.2,28.4,30.14,ENE,60,0.0,-999.9,65,-99.99,,,-99.99,,2013-02-12 09:18:00,
2013-02-12 04:24:00,39.2,26.6,30.15,NE,55,3.5,-999.9,61,-99.99,,,-99.99,,2013-02-12 09:24:00,
2013-02-12 04:30:00,39.2,26.6,30.15,South,179,3.5,-999.9,61,-99.99,,,-99.99,,2013-02-12 09:30:00,
2013-02-12 04:39:00,39.2,26.6,30.15,South,179,3.5,-999.9,61,-99.99,,,-99.99,,2013-02-12 09:39:00,
2013-02-12 04:44:00,39.2,26.6,30.15,North,0,0.0,-999.9,61,-99.99,,,-99.99,,2013-02-12 09:44:00,
2013-02-12 04:50:00,39.2,28.4,30.15,North,0,0.0,-999.9,65,-99.99,,,-99.99,,2013-02-12 09:50:00,
2013-02-12 04:58:00,39.2,28.4,30.15,North,0,0.0,-999.9,65,-99.99,,,-99.99,,2013-02-12 09:58:00,
2013-02-12 05:05:00,39.2,28.4,30.16,North,0,0.0,-999.9,65,-99.99,,,-99.99,,2013-02-12 10:05:00,
2013-02-12 05:10:00,39.2,28.4,30.15,East,95,3.5,-999.9,65,-99.99,,,-99.99,,2013-02-12 10:10:00,
2013-02-12 05:18:00,39.2,28.4,30.15,East,95,3.5,-999.9,65,-99.99,,,-99.99,,2013-02-12 10:18:00,
2013-02-12 05:24:00,39.2,26.6,30.15,SE,125,3.5,-999.9,61,-99.99,,,-99.99,,2013-02-12 10:24:00,
2013-02-12 05:30:00,39.2,28.4,30.16,North,0,0.0,-999.9,65,-99.99,,,-99.99,,2013-02-12 10:30:00,
2013-02-12 05:38:00,39.2,28.4,30.16,North,0,0.0,-999.9,65,-99.99,,,-99.99,,2013-02-12 10:38:00,
2013-02-12 05:43:00,39.2,28.4,30.16,North,0,0.0,-999.9,65,-99.99,,,-99.99,,2013-02-12 10:43:00,
2013-02-12 05:50:00,39.2,28.4,30.16,North,0,0.0,-999.9,65,-99.99,,,-99.99,,2013-02-12 10:50:00,
2013-02-12 05:58:00,39.2,28.4,30.16,North,0,0.0,-999.9,65,-99.99,,,-99.99,,2013-02-12 10:58:00,
2013-02-12 06:10:00,39.2,28.4,30.16,SW,222,1.2,-999.9,65,-99.99,,,-99.99,,2013-02-12 11:10:00,
2013-02-12 06:18:00,39.2,28.4,30.16,SW,222,1.2,-999.9,65,-99.99,,,-99.99,,2013-02-12 11:18:00,
2013-02-12 06:23:00,39.2,26.6,30.16,North,0,0.0,-999.9,61,-99.99,,,-99.99,,2013-02-12 11:23:00,
2013-02-12 06:28:00,39.2,26.6,30.16,North,0,0.0,-999.9,61,-99.99,,,-99.99,,2013-02-12 11:28:00,
2013-02-12 06:34:00,39.2,26.6,30.16,South,175,1.2,-999.9,61,-99.99,,,-99.99,,2013-02-12 11:34:00,
2013-02-12 06:41:00,39.2,26.6,30.17,SE,141,3.5,-999.9,61,-99.99,,,-99.99,,2013-02-12 11:41:00,
2013-02-12 06:48:00,39.2,26.6,30.17,SE,141,3.5,-999.9,61,-99.99,,,-99.99,,2013-02-12 11:48:00,
2013-02-12 06:54:00,39.2,26.6,30.17,SE,143,0.0,-999.9,61,-99.99,,,-99.99,,2013-02-12 11:54:00,
2013-02-12 07:00:00,39.2,26.6,30.18,East,92,0.0,-999.9,61,-99.99,,,-99.99,,2013-02-12 12:00:00,
2013-02-12 07:08:00,39.2,26.6,30.18,East,92,0.0,-999.9,61,-99.99,,,-99.99,,2013-02-12 12:08:00,
2013-02-12 07:14:00,39.2,26.6,30.17,South,183,2.3,-999.9,61,-99.99,,,-99.99,,2013-02-12 12:14:00,
2013-02-12 07:20:00,39.2,26.6,30.17,SSE,165,4.6,-999.9,61,-99.99,,,-99.99,,2013-02-12 12:20:00,
2013-02-12 07:28:00,39.2,26.6,30.17,SSE,165,4.6,-999.9,61,-99.99,,,-99.99,,2013-02-12 12:28:00,
2013-02-12 07:34:00,39.2,24.8,30.18,SE,136,3.5,-999.9,56,-99.99,,,-99.99,,2013-02-12 12:34:00,
2013-02-12 07:40:00,39.2,24.8,30.18,SSE,167,0.0,-999.9,56,-99.99,,,-99.99,,2013-02-12 12:40:00,
2013-02-12 07:48:00,39.2,24.8,30.18,SSE,167,0.0,-999.9,56,-99.99,,,-99.99,,2013-02-12 12:48:00,
2013-02-12 07:54:00,39.2,24.8,30.19,SSE,163,0.0,-999.9,56,-99.99,,,-99.99,,2013-02-12 12:54:00,
2013-02-12 08:00:00,41.0,26.6,30.19,SSE,162,3.5,-999.9,57,-99.99,,,-99.99,,2013-02-12 13:00:00,
2013-02-12 08:08:00,41.0,26.6,30.19,SSE,162,3.5,-999.9,57,-99.99,,,-99.99,,2013-02-12 13:08:00,
2013-02-12 08:14:00,41.0,26.6,30.19,SE,124,2.3,-999.9,57,-99.99,,,-99.99,,2013-02-12 13:14:00,
2013-02-12 08:20:00,41.0,24.8,30.19,West,280,0.0,-999.9,53,-99.99,,,-99.99,,2013-02-12 13:20:00,
2013-02-12 08:28:00,41.0,24.8,30.19,West,280,0.0,-999.9,53,-99.99,,,-99.99,,2013-02-12 13:28:00,
2013-02-12 08:34:00,42.8,26.6,30.19,SSE,151,1.2,-999.9,53,-99.99,,,-99.99,,2013-02-12 13:34:00,
2013-02-12 08:40:00,42.8,26.6,30.20,ESE,111,3.5,-999.9,53,-99.99,,,-99.99,,2013-02-12 13:40:00,
2013-02-12 08:49:00,42.8,26.6,30.20,ESE,111,3.5,-999.9,53,-99.99,,,-99.99,,2013-02-12 13:49:00,
2013-02-12 08:54:00,42.8,24.8,30.20,South,179,5.8,-999.9,49,-99.99,,,-99.99,,2013-02-12 13:54:00,
2013-02-12 09:00:00,42.8,26.6,30.20,SE,135,1.2,-999.9,53,-99.99,,,-99.99,,2013-02-12 14:00:00,
2013-02-12 09:08:00,42.8,26.6,30.20,SE,135,1.2,-999.9,53,-99.99,,,-99.99,,2013-02-12 14:08:00,
2013-02-12 09:15:00,42.8,26.6,30.20,East,87,2.3,-999.9,53,-99.99,,,-99.99,,2013-02-12 14:15:00,
2013-02-12 09:20:00,42.8,26.6,30.21,ESE,112,3.5,-999.9,53,-99.99,,,-99.99,,2013-02-12 14:20:00,
2013-02-12 09:28:00,42.8,26.6,30.21,ESE,112,3.5,-999.9,53,-99.99,,,-99.99,,2013-02-12 14:28:00,
2013-02-12 09:34:00,42.8,26.6,30.22,ENE,68,3.5,-999.9,53,-99.99,,,-99.99,,2013-02-12 14:34:00,
2013-02-12 09:40:00,42.8,24.8,30.22,ENE,67,1.2,-999.9,49,-99.99,,,-99.99,,2013-02-12 14:40:00,
2013-02-12 09:48:00,42.8,24.8,30.22,ENE,67,1.2,-999.9,49,-99.99,,,-99.99,,2013-02-12 14:48:00,
2013-02-12 09:54:00,42.8,26.6,30.21,SSE,151,0.0,-999.9,53,-99.99,,,-99.99,,2013-02-12 14:54:00,
2013-02-12 10:01:00,42.8,24.8,30.22,ENE,66,2.3,-999.9,49,-99.99,,,-99.99,,2013-02-12 15:01:00,
2013-02-12 10:08:00,42.8,24.8,30.22,ENE,66,2.3,-999.9,49,-99.99,,,-99.99,,2013-02-12 15:08:00,
2013-02-12 10:14:00,42.8,24.8,30.22,NNE,25,5.8,-999.9,49,-99.99,,,-99.99,,2013-02-12 15:14:00,
2013-02-12 10:20:00,42.8,24.8,30.22,NNE,27,10.4,-999.9,49,-99.99,,,-99.99,,2013-02-12 15:20:00,
2013-02-12 10:28:00,42.8,24.8,30.22,NNE,27,10.4,-999.9,49,-99.99,,,-99.99,,2013-02-12 15:28:00,
2013-02-12 10:35:00,42.8,24.8,30.22,ENE,76,2.3,-999.9,49,-99.99,,,-99.99,,2013-02-12 15:35:00,
2013-02-12 10:44:00,42.8,24.8,30.23,NNW,334,0.0,-999.9,49,-99.99,,,-99.99,,2013-02-12 15:44:00,
2013-02-12 10:50:00,44.6,26.6,30.23,East,98,1.2,-999.9,49,-99.99,,,-99.99,,2013-02-12 15:50:00,
2013-02-12 10:59:00,44.6,26.6,30.23,East,98,1.2,-999.9,49,-99.99,,,-99.99,,2013-02-12 15:59:00,
2013-02-12 11:04:00,42.8,24.8,30.23,NNW,330,1.2,-999.9,49,-99.99,,,-99.99,,2013-02-12 16:04:00,
2013-02-12 11:14:00,44.6,24.8,30.23,NNW,343,1.2,-999.9,46,-99.99,,,-99.99,,2013-02-12 16:14:00,
2013-02-12 11:20:00,44.6,24.8,30.23,East,90,3.5,-999.9,46,-99.99,,,-99.99,,2013-02-12 16:20:00,
2013-02-12 11:28:00,44.6,24.8,30.23,East,90,3.5,-999.9,46,-99.99,,,-99.99,,2013-02-12 16:28:00,
2013-02-12 11:34:00,44.6,24.8,30.24,NNE,29,5.8,-999.9,46,-99.99,,,-99.99,,2013-02-12 16:34:00,
2013-02-12 11:40:00,44.6,24.8,30.24,NE,55,2.3,-999.9,46,-99.99,,,-99.99,,2013-02-12 16:40:00,
2013-02-12 11:48:00,44.6,24.8,30.24,NE,55,2.3,-999.9,46,-99.99,,,-99.99,,2013-02-12 16:48:00,
2013-02-12 12:00:00,42.8,24.8,30.24,NNE,20,4.6,-999.9,49,-99.99,,,-99.99,,2013-02-12 17:00:00,
2013-02-12 12:08:00,42.8,24.8,30.24,NNE,20,4.6,-999.9,49,-99.99,,,-99.99,,2013-02-12 17:08:00,
2013-02-12 12:14:00,44.6,24.8,30.24,East,92,1.2,-999.9,46,-99.99,,,-99.99,,2013-02-12 17:14:00,
2013-02-12 12:19:00,44.6,24.8,30.24,East,92,1.2,-999.9,46,-99.99,,,-99.99,,2013-02-12 17:19:00,
2013-02-12 12:27:00,42.8,24.8,30.24,East,82,4.6,-999.9,49,-99.99,,,-99.99,,2013-02-12 17:27:00,
2013-02-12 12:34:00,42.8,24.8,30.25,ENE,69,3.5,-999.9,49,-99.99,,,-99.99,,2013-02-12 17:34:00,
2013-02-12 12:40:00,42.8,24.8,30.25,SSE,158,4.6,-999.9,49,-99.99,,,-99.99,,2013-02-12 17:40:00,
2013-02-12 12:48:00,42.8,24.8,30.25,SSE,158,4.6,-999.9,49,-99.99,,,-99.99,,2013-02-12 17:48:00,
2013-02-12 12:54:00,44.6,24.8,30.25,SSW,194,1.2,-999.9,46,-99.99,,,-99.99,,2013-02-12 17:54:00,
2013-02-12 13:00:00,44.6,24.8,30.25,SSW,194,1.2,-999.9,46,-99.99,,,-99.99,,2013-02-12 18:00:00,
2013-02-12 13:08:00,46.4,26.6,30.25,ESE,115,4.6,-999.9,46,-99.99,,,-99.99,,2013-02-12 18:08:00,
2013-02-12 13:15:00,44.6,24.8,30.24,East,82,5.8,-999.9,46,-99.99,,,-99.99,,2013-02-12 18:15:00,
2013-02-12 13:20:00,44.6,24.8,30.25,SE,129,1.2,-999.9,46,-99.99,,,-99.99,,2013-02-12 18:20:00,
2013-02-12 13:27:00,44.6,24.8,30.25,SE,129,1.2,-999.9,46,-99.99,,,-99.99,,2013-02-12 18:27:00,
2013-02-12 13:34:00,44.6,24.8,30.25,SE,128,1.2,-999.9,46,-99.99,,,-99.99,,2013-02-12 18:34:00,
2013-02-12 13:40:00,44.6,24.8,30.25,SE,124,5.8,-999.9,46,-99.99,,,-99.99,,2013-02-12 18:40:00,
2013-02-12 13:47:00,44.6,24.8,30.25,SE,124,5.8,-999.9,46,-99.99,,,-99.99,,2013-02-12 18:47:00,
2013-02-12 13:54:00,44.6,24.8,30.24,SSE,166,0.0,-999.9,46,-99.99,,,-99.99,,2013-02-12 18:54:00,
2013-02-12 14:00:00,44.6,24.8,30.24,SSE,166,0.0,-999.9,46,-99.99,,,-99.99,,2013-02-12 19:00:00,
2013-02-12 14:08:00,44.6,24.8,30.24,SSE,156,2.3,-999.9,46,-99.99,,,-99.99,,2013-02-12 19:08:00,
2013-02-12 14:14:00,44.6,24.8,30.24,NE,37,8.1,-999.9,46,-99.99,,,-99.99,,2013-02-12 19:14:00,
2013-02-12 14:19:00,44.6,24.8,30.24,NE,37,8.1,-999.9,46,-99.99,,,-99.99,,2013-02-12 19:19:00,
2013-02-12 14:28:00,44.6,24.8,30.24,East,101,2.3,-999.9,46,-99.99,,,-99.99,,2013-02-12 19:28:00,
2013-02-12 14:34:00,44.6,24.8,30.24,NE,50,4.6,-999.9,46,-99.99,,,-99.99,,2013-02-12 19:34:00,
2013-02-12 14:40:00,44.6,24.8,30.24,SSW,205,3.5,-999.9,46,-99.99,,,-99.99,,2013-02-12 19:40:00,
2013-02-12 14:48:00,44.6,24.8,30.24,SSW,205,3.5,-999.9,46,-99.99,,,-99.99,,2013-02-12 19:48:00,
2013-02-12 14:54:00,42.8,24.8,30.24,NE,45,3.5,-999.9,49,-99.99,,,-99.99,,2013-02-12 19:54:00,
2013-02-12 15:00:00,42.8,24.8,30.24,ESE,110,4.6,-999.9,49,-99.99,,,-99.99,,2013-02-12 20:00:00,
2013-02-12 15:08:00,42.8,24.8,30.24,ESE,110,4.6,-999.9,49,-99.99,,,-99.99,,2013-02-12 20:08:00,
2013-02-12 15:14:00,42.8,23.0,30.23,North,9,1.2,-999.9,46,-99.99,,,-99.99,,2013-02-12 20:14:00,
2013-02-12 15:20:00,42.8,24.8,30.24,NNE,23,0.0,-999.9,49,-99.99,,,-99.99,,2013-02-12 20:20:00,
2013-02-12 15:28:00,42.8,24.8,30.24,NNE,23,0.0,-999.9,49,-99.99,,,-99.99,,2013-02-12 20:28:00,
2013-02-12 15:34:00,42.8,23.0,30.24,NE,43,0.0,-999.9,46,-99.99,,,-99.99,,2013-02-12 20:34:00,
2013-02-12 15:40:00,42.8,24.8,30.24,NE,41,1.2,-999.9,49,-99.99,,,-99.99,,2013-02-12 20:40:00,
2013-02-12 15:48:00,42.8,24.8,30.24,NE,41,1.2,-999.9,49,-99.99,,,-99.99,,2013-02-12 20:48:00,
2013-02-12 15:54:00,42.8,24.8,30.23,East,79,0.0,-999.9,49,-99.99,,,-99.99,,2013-02-12 20:54:00,
2013-02-12 16:00:00,42.8,24.8,30.23,NW,323,1.2,-999.9,49,-99.99,,,-99.99,,2013-02-12 21:00:00,
2013-02-12 16:08:00,42.8,24.8,30.23,NW,323,1.2,-999.9,49,-99.99,,,-99.99,,2013-02-12 21:08:00,
2013-02-12 16:14:00,42.8,26.6,30.22,East,96,2.3,-999.9,53,-99.99,,,-99.99,,2013-02-12 21:14:00,
2013-02-12 16:20:00,42.8,24.8,30.21,ENE,57,3.5,-999.9,49,-99.99,,,-99.99,,2013-02-12 21:20:00,
2013-02-12 16:27:00,42.8,24.8,30.21,ENE,57,3.5,-999.9,49,-99.99,,,-99.99,,2013-02-12 21:27:00,
2013-02-12 16:34:00,42.8,24.8,30.19,NE,51,3.5,-999.9,49,-99.99,,,-99.99,,2013-02-12 21:34:00,
2013-02-12 16:40:00,42.8,26.6,30.18,NNE,26,0.0,-999.9,53,-99.99,,,-99.99,,2013-02-12 21:40:00,
2013-02-12 16:48:00,42.8,26.6,30.18,NNE,26,0.0,-999.9,53,-99.99,,,-99.99,,2013-02-12 21:48:00,
2013-02-12 16:56:00,42.8,26.6,30.19,NE,37,0.0,-999.9,53,-99.99,,,-99.99,,2013-02-12 21:56:00,
2013-02-12 17:03:00,42.8,26.6,30.21,ESE,121,0.0,-999.9,53,-99.99,,,-99.99,,2013-02-12 22:03:00,
2013-02-12 17:10:00,42.8,26.6,30.23,NNE,15,1.2,-999.9,53,-99.99,,,-99.99,,2013-02-12 22:10:00,
2013-02-12 17:18:00,42.8,26.6,30.23,NNE,15,1.2,-999.9,53,-99.99,,,-99.99,,2013-02-12 22:18:00,
2013-02-12 17:24:00,41.0,24.8,30.24,North,0,0.0,-999.9,53,-99.99,,,-99.99,,2013-02-12 22:24:00,
2013-02-12 17:30:00,41.0,24.8,30.25,ESE,105,0.0,-999.9,53,-99.99,,,-99.99,,2013-02-12 22:30:00,
2013-02-12 17:38:00,41.0,24.8,30.25,ESE,105,0.0,-999.9,53,-99.99,,,-99.99,,2013-02-12 22:38:00,
2013-02-12 17:44:00,41.0,24.8,30.25,NE,52,3.5,-999.9,53,-99.99,,,-99.99,,2013-02-12 22:44:00,
2013-02-12 17:50:00,41.0,24.8,30.29,ENE,74,1.2,-999.9,53,-99.99,,,-99.99,,2013-02-12 22:50:00,
2013-02-12 18:00:00,41.0,24.8,30.31,SE,127,3.5,-999.9,53,-99.99,,,-99.99,,2013-02-12 23:00:00,
2013-02-12 18:08:00,41.0,24.8,30.31,SE,127,3.5,-999.9,53,-99.99,,,-99.99,,2013-02-12 23:08:00,
2013-02-12 18:13:00,41.0,24.8,30.30,North,0,0.0,-999.9,53,-99.99,,,-99.99,,2013-02-12 23:13:00,
2013-02-12 18:19:00,41.0,24.8,30.30,North,0,0.0,-999.9,53,-99.99,,,-99.99,,2013-02-12 23:19:00,
2013-02-12 18:28:00,41.0,24.8,30.31,North,0,0.0,-999.9,53,-99.99,,,-99.99,,2013-02-12 23:28:00,
2013-02-12 19:22:00,39.2,24.8,30.33,North,0,0.0,-999.9,56,-99.99,,,-99.99,,2013-02-13 00:22:00,
2013-02-12 19:28:00,39.2,24.8,30.33,North,0,0.0,-999.9,56,-99.99,,,-99.99,,2013-02-13 00:28:00,
2013-02-12 19:34:00,39.2,23.0,30.32,NNE,26,1.2,-999.9,52,-99.99,,,-99.99,,2013-02-13 00:34:00,
2013-02-12 19:40:00,39.2,23.0,30.32,North,0,0.0,-999.9,52,-99.99,,,-99.99,,2013-02-13 00:40:00,
2013-02-12 19:46:00,39.2,23.0,30.32,North,0,0.0,-999.9,52,-99.99,,,-99.99,,2013-02-13 00:46:00,
2013-02-12 19:55:00,39.2,24.8,30.33,North,0,0.0,-999.9,56,-99.99,,,-99.99,,2013-02-13 00:55:00,
2013-02-12 20:01:00,39.2,24.8,30.32,North,0,0.0,-999.9,56,-99.99,,,-99.99,,2013-02-13 01:01:00,
2013-02-12 20:07:00,39.2,24.8,30.32,North,0,0.0,-999.9,56,-99.99,,,-99.99,,2013-02-13 01:07:00,
2013-02-12 20:12:00,39.2,24.8,30.32,North,0,0.0,-999.9,56,-99.99,,,-99.99,,2013-02-13 01:12:00,
2013-02-12 20:26:00,39.2,24.8,30.32,North,0,0.0,-999.9,56,-99.99,,,-99.99,,2013-02-13 01:26:00,
2013-02-12 20:33:00,39.2,24.8,30.32,North,0,0.0,-999.9,56,-99.99,,,-99.99,,2013-02-13 01:33:00,
2013-02-12 20:40:00,39.2,26.6,30.32,North,0,0.0,-999.9,61,-99.99,,,-99.99,,2013-02-13 01:40:00,
2013-02-12 20:46:00,39.2,26.6,30.32,North,0,0.0,-999.9,61,-99.99,,,-99.99,,2013-02-13 01:46:00,
2013-02-12 20:52:00,39.2,26.6,30.31,North,0,0.0,-999.9,61,-99.99,,,-99.99,,2013-02-13 01:52:00,
2013-02-12 21:00:00,39.2,26.6,30.31,North,0,0.0,-999.9,61,-99.99,,,-99.99,,2013-02-13 02:00:00,
2013-02-12 21:06:00,39.2,26.6,30.31,North,0,0.0,-999.9,61,-99.99,,,-99.99,,2013-02-13 02:06:00,
2013-02-12 21:12:00,37.4,26.6,30.30,North,0,0.0,-999.9,65,-99.99,,,-99.99,,2013-02-13 02:12:00,
2013-02-12 21:20:00,37.4,26.6,30.30,North,0,0.0,-999.9,65,-99.99,,,-99.99,,2013-02-13 02:20:00,
2013-02-12 21:26:00,37.4,26.6,30.30,North,0,0.0,-999.9,65,-99.99,,,-99.99,,2013-02-13 02:26:00,
2013-02-12 21:36:00,37.4,26.6,30.29,North,0,0.0,-999.9,65,-99.99,,,-99.99,,2013-02-13 02:36:00,
2013-02-12 21:42:00,37.4,26.6,30.29,North,0,0.0,-999.9,65,-99.99,,,-99.99,,2013-02-13 02:42:00,
2013-02-12 21:49:00,37.4,26.6,30.29,North,0,0.0,-999.9,65,-99.99,,,-99.99,,2013-02-13 02:49:00,
2013-02-12 21:56:00,35.6,24.8,30.29,North,0,0.0,-999.9,65,-99.99,,,-99.99,,2013-02-13 02:56:00,
2013-02-12 22:06:00,35.6,26.6,30.29,North,0,0.0,-999.9,70,-99.99,,,-99.99,,2013-02-13 03:06:00,
2013-02-12 22:12:00,35.6,24.8,30.29,North,0,0.0,-999.9,65,-99.99,,,-99.99,,2013-02-13 03:12:00,
2013-02-12 22:20:00,35.6,26.6,30.29,North,0,0.0,-999.9,70,-99.99,,,-99.99,,2013-02-13 03:20:00,
2013-02-12 22:26:00,35.6,26.6,30.29,North,0,0.0,-999.9,70,-99.99,,,-99.99,,2013-02-13 03:26:00,
2013-02-12 22:32:00,33.8,26.6,30.29,North,0,0.0,-999.9,75,-99.99,,,-99.99,,2013-02-13 03:32:00,
2013-02-12 22:40:00,33.8,26.6,30.28,North,0,0.0,-999.9,75,-99.99,,,-99.99,,2013-02-13 03:40:00,
2013-02-12 22:46:00,33.8,26.6,30.28,North,0,0.0,-999.9,75,-99.99,,,-99.99,,2013-02-13 03:46:00,
2013-02-12 22:52:00,32.0,24.8,30.29,North,0,0.0,-999.9,75,-99.99,,,-99.99,,2013-02-13 03:52:00,
2013-02-12 23:00:00,32.0,24.8,30.30,North,0,0.0,-999.9,75,-99.99,,,-99.99,,2013-02-13 04:00:00,
2013-02-12 23:06:00,32.0,24.8,30.30,North,0,0.0,-999.9,75,-99.99,,,-99.99,,2013-02-13 04:06:00,
2013-02-12 23:12:00,32.0,26.6,30.28,North,0,0.0,-999.9,80,-99.99,,,-99.99,,2013-02-13 04:12:00,
2013-02-12 23:20:00,32.0,26.6,30.29,North,0,0.0,-999.9,80,-99.99,,,-99.99,,2013-02-13 04:20:00,
2013-02-12 23:26:00,32.0,26.6,30.29,North,0,0.0,-999.9,80,-99.99,,,-99.99,,2013-02-13 04:26:00,
2013-02-12 23:32:00,32.0,26.6,30.30,North,0,0.0,-999.9,80,-99.99,,,-99.99,,2013-02-13 04:32:00,
2013-02-12 23:40:00,30.2,24.8,30.29,North,0,0.0,-999.9,80,-99.99,,,-99.99,,2013-02-13 04:40:00,
2013-02-12 23:46:00,30.2,24.8,30.29,North,0,0.0,-999.9,80,-99.99,,,-99.99,,2013-02-13 04:46:00,
2013-02-12 23:52:00,30.2,26.6,30.30,North,0,0.0,-999.9,86,-99.99,,,-99.99,,2013-02-13 04:52:00,